This is the latest recevied weather packets stored in our database for station/object LA5PPA-1. If no packets are shown the sender has not sent any weather packets the latest 10 day(s).
| Time | Temp. | Humidity | Pressure | Rain* | Wind** | Luminosity | Snow |
|---|---|---|---|---|---|---|---|
| 1777902118 | 3.33° C | 62% | 1008.4 hPa | 0 mm | - | - | - |
| 1777902000 | 3.33° C | 62% | 1008.4 hPa | 0 mm | - | - | - |
| 1777901819 | 3.33° C | 62% | 1008.7 hPa | 0 mm | - | - | - |
| 1777901519 | 3.33° C | 62% | 1008.5 hPa | 0 mm | - | - | - |
| 1777901340 | 3.33° C | 61% | 1008.7 hPa | 0 mm | - | - | - |
| 1777901219 | 3.33° C | 61% | 1008.5 hPa | 0 mm | - | - | - |
| 1777900919 | 3.89° C | 60% | 1008.7 hPa | 0 mm | - | - | - |
| 1777900680 | 3.33° C | 60% | 1008.7 hPa | 0 mm | - | - | - |
| 1777900618 | 3.33° C | 60% | 1008.7 hPa | 0 mm | - | - | - |
| 1777900319 | 3.89° C | 57% | 1008.5 hPa | 0 mm | - | - | - |
| 1777900019 | 4.44° C | 54% | 1008.8 hPa | 0 mm | - | - | - |
| 1777899719 | 5° C | 53% | 1008.7 hPa | 0 mm | - | - | - |
| 1777899419 | 4.44° C | 53% | 1008.5 hPa | 0 mm | - | - | - |
| 1777899360 | 4.44° C | 53% | 1008.7 hPa | 0 mm | - | - | - |
| 1777899119 | 4.44° C | 53% | 1008.8 hPa | 0 mm | - | - | - |
| 1777898819 | 4.44° C | 52% | 1008.9 hPa | 0 mm | - | - | - |
| 1777898700 | 4.44° C | 52% | 1008.9 hPa | 0 mm | - | - | - |
| 1777898519 | 4.44° C | 52% | 1008.9 hPa | 0 mm | - | - | - |
| 1777898219 | 3.89° C | 52% | 1008.9 hPa | 0 mm | - | - | - |
| 1777898040 | 3.89° C | 52% | 1008.9 hPa | 0 mm | - | - | - |
| 1777897919 | 3.89° C | 51% | 1008.9 hPa | 0 mm | - | - | - |
| 1777897619 | 3.89° C | 50% | 1008.8 hPa | 0 mm | - | - | - |
| 1777897380 | 4.44° C | 47% | 1008.9 hPa | 0 mm | - | - | - |
| 1777897319 | 5° C | 46% | 1008.8 hPa | 0 mm | - | - | - |
| 1777897019 | 6.11° C | 48% | 1008.7 hPa | 0 mm | - | - | - |
* Rain latest hour (hover to see other rain measurements)
** Current wind speed in m/s (hover to see current wind gust speed)